Wind_Speed
41 42 44 45 46 46 47 48 48 49 48 48 47 47 47 48 47 47 47 47 47 46 46 46 46 47 48 48 48 48 48 49 49 47 47 47 47 46 45 44 44 45 45
41 42 43 44 45 46 46 46 47 48 48 48 48 48 48 49 48 48 48 49 48 48 47 47 47 48 49 48 48 48 48 49 49 48 48 48 47 46 45 43 43 43 43
40 41 43 44 44 45 46 46 46 47 48 49 49 48 49 49 48 49 49 49 49 48 48 48 48 48 48 48 48 48 48 49 49 48 48 47 47 46 46 44 43 43 43
39 40 42 42 43 44 45 45 45 46 46 48 49 48 49 49 49 49 49 49 49 48 48 48 47 48 48 48 48 48 48 49 48 48 47 46 45 46 46 45 44 43 43
38 39 40 41 43 44 44 44 44 44 44 44 46 47 47 47 47 48 48 48 48 48 48 48 48 48 49 48 48 49 49 49 48 48 47 46 45 45 44 44 43 43 42
37 38 39 40 41 43 43 43 43 43 42 42 43 44 45 45 44 45 46 46 46 47 47 48 48 48 48 49 49 49 50 49 48 47 46 45 45 44 43 42 41 41 40
36 37 38 39 40 40 40 41 41 42 42 42 42 42 43 43 43 43 44 45 45 46 47 47 47 47 48 49 49 49 49 48 47 46 45 44 44 43 42 42 41 41 41
35 36 37 37 37 38 39 40 40 41 41 42 42 41 41 41 42 43 44 44 45 46 46 46 45 46 46 47 48 47 47 46 45 45 44 43 43 42 41 40 40 41 40
33 34 34 35 34 34 36 37 38 39 40 41 41 41 41 42 42 43 44 44 44 45 44 44 45 44 44 45 45 45 44 43 43 42 42 42 41 41 40 40 40 41 40
31 32 32 33 33 33 33 35 37 38 39 40 40 40 41 41 41 42 43 43 43 43 43 44 43 43 43 42 42 41 41 40 40 40 41 40 40 39 39 39 39 40 40
30 31 31 32 32 33 34 35 37 37 38 38 39 40 40 41 41 42 42 43 43 43 42 41 41 41 41 41 40 39 39 39 39 40 39 39 38 37 38 38 38 38 39
30 30 31 32 33 34 35 36 36 36 37 37 37 37 38 39 40 41 41 41 42 41 40 39 39 40 39 39 39 38 38 39 39 38 39 38 38 37 37 37 37 37 37
30 31 31 32 33 33 34 35 35 36 36 36 37 37 37 38 39 39 39 39 39 39 39 39 38 38 38 38 38 37 37 38 38 38 38 38 38 37 36 36 35 36 36
31 31 32 32 32 33 33 33 34 34 34 35 36 36 37 37 37 37 37 37 37 38 38 37 37 37 36 36 36 37 37 37 37 37 38 38 37 37 36 35 35 35 35
30 30 31 31 31 31 32 33 33 33 33 34 35 35 35 35 35 35 35 35 35 36 35 35 34 34 34 34 35 36 36 36 36 37 36 37 38 37 36 35 34 34 34
26 27 28 29 30 30 31 31 31 32 32 33 34 34 34 34 33 34 34 34 33 33 33 33 33 34 33 33 34 34 34 34 34 34 35 36 36 36 35 34 34 34 34
26 26 27 27 28 29 30 30 29 29 30 31 32 32 32 31 31 31 31 30 30 30 31 32 33 33 33 33 33 33 33 33 33 33 34 34 34 34 34 34 34 33 33
25 25 26 26 27 28 28 29 28 29 29 29 29 29 29 29 29 29 28 28 28 28 30 31 32 33 33 33 32 32 32 32 32 32 32 32 32 32 32 32 32 32 32
25 25 25 26 26 27 27 28 28 29 29 28 28 28 28 27 27 27 26 26 27 28 29 30 30 31 31 32 32 31 31 31 31 31 32 32 32 32 32 32 32 32 32
25 26 26 25 26 26 27 27 27 27 27 26 26 25 25 25 24 24 25 25 26 27 27 28 28 28 29 30 30 30 30 29 29 30 31 31 30 30 30 30 30 31 31
26 26 25 26 26 26 26 26 25 25 25 25 24 24 23 23 23 23 23 24 25 25 25 26 26 27 27 28 28 28 29 29 29 29 29 29 28 28 28 28 28 29 29
25 25 26 26 25 25 25 24 24 24 24 24 24 23 23 23 23 23 23 24 24 25 25 25 25 25 25 25 26 27 27 27 28 28 27 27 26 27 27 27 27 27 28
25 26 26 26 25 24 24 24 24 24 24 24 23 23 24 24 24 24 24 24 24 24 24 24 24 23 23 23 24 25 25 26 26 26 26 25 25 25 25 26 26 26 26
25 25 25 25 25 24 24 25 25 25 24 24 24 24 24 24 24 24 24 24 24 24 24 23 23 23 23 23 23 23 23 23 24 24 24 24 25 24 24 24 24 24 24
26 25 25 25 25 25 25 25 25 24 24 23 23 23 23 23 23 24 24 24 24 23 23 22 22 22 22 22 22 22 23 23 23 23 23 23 23 23 23 23 23 22 22
27 27 27 26 25 25 25 24 24 23 22 22 22 22 22 22 22 22 22 22 22 22 22 22 22 22 22 22 22 22 22 22 22 22 22 22 22 22 22 22 21 21 20
Wind_Direction
257 257 258 259 259 261 262 262 263 263 263 264 265 266 266 267 268 268 267 268 268 269 271 271 271 272 274 274 275 275 276 277 277 277 277 278 278 277 277 278 280 280 281
259 259 259 260 261 262 262 262 263 263 262 264 265 266 266 267 268 268 267 268 268 269 271 271 271 272 272 273 274 275 275 276 277 277 276 276 276 275 275 276 279 280 280
261 261 262 262 263 262 262 262 264 264 264 264 265 266 267 268 269 269 269 269 269 270 270 271 272 272 272 273 274 275 275 276 276 277 276 276 274 275 274 276 278 279 279
263 263 263 264 264 263 262 263 263 265 265 265 266 266 267 267 268 269 269 269 269 270 272 273 273 273 272 272 273 274 275 276 276 275 274 275 275 275 275 276 277 277 279
264 264 263 264 265 264 264 264 264 266 266 267 268 268 268 268 268 269 269 268 269 270 271 272 272 273 273 273 273 274 274 274 274 274 274 273 274 275 276 276 276 276 277
267 267 265 265 264 264 264 264 264 266 266 267 269 270 269 269 269 269 269 269 270 270 271 272 272 272 272 272 273 274 273 273 273 273 273 273 274 275 275 275 275 276 277
271 270 268 267 266 267 266 266 266 267 267 267 268 269 270 270 269 269 270 271 272 273 273 273 272 272 273 273 273 273 272 272 272 272 273 273 273 273 274 275 275 275 276
273 272 271 270 268 268 267 267 268 268 268 269 269 269 269 270 270 271 271 271 272 273 273 273 272 273 273 273 273 272 271 271 272 273 273 273 272 272 273 274 275 277 276
275 274 272 270 270 269 269 269 268 269 269 269 270 270 270 270 271 272 272 272 273 273 273 272 273 273 272 273 272 271 270 270 271 272 273 272 272 271 272 273 274 276 276
277 275 273 271 270 270 270 270 270 270 271 270 270 270 270 270 271 272 273 273 273 273 272 273 273 272 271 271 270 270 270 270 270 271 271 272 272 272 272 273 275 276 277
279 276 273 271 270 270 271 271 271 271 272 272 271 271 271 271 271 272 273 273 274 274 273 272 272 272 271 271 271 270 269 269 269 270 271 272 273 273 273 272 274 276 278
278 276 275 273 272 272 272 272 272 272 272 273 273 272 272 272 272 272 273 272 273 272 272 272 271 272 271 271 270 269 268 268 270 270 271 272 273 273 273 272 274 276 277
278 278 277 276 275 275 275 274 274 274 273 274 274 273 273 273 273 272 271 271 271 271 271 271 270 270 270 270 269 269 269 269 270 271 272 272 272 272 273 273 274 275 276
280 279 280 278 277 277 278 277 275 275 275 275 275 274 273 273 273 273 272 272 270 268 268 269 270 269 269 269 269 269 269 269 269 270 271 272 271 272 273 272 273 274 276
282 280 281 279 278 278 278 277 277 277 277 276 275 273 273 274 274 273 271 270 269 269 268 267 268 268 268 268 269 269 269 268 268 269 269 270 271 271 273 272 272 274 274
284 284 282 279 277 277 278 278 278 278 278 277 276 276 275 275 273 272 271 270 269 268 268 268 268 268 268 267 267 268 269 268 268 270 270 270 271 271 271 272 271 272 273
286 286 284 282 280 279 279 279 280 281 281 279 279 278 276 275 273 272 271 271 271 271 270 268 267 267 267 267 268 268 268 266 268 270 272 271 271 271 271 271 270 271 272
287 288 286 284 282 282 280 280 280 281 281 281 281 280 278 276 274 273 272 272 272 272 272 270 268 267 266 267 268 268 267 268 269 270 271 271 270 272 272 272 272 272 273
289 289 289 287 284 283 283 283 283 282 281 282 282 280 278 275 273 272 272 272 273 274 274 274 271 269 268 268 267 266 267 268 269 269 270 271 271 272 272 274 274 273 274
290 291 290 289 287 285 285 286 286 284 284 282 281 280 278 276 274 273 274 275 275 276 276 276 274 272 270 268 266 266 268 269 269 270 270 271 271 272 273 273 274 274 273
291 292 292 291 289 287 285 284 284 284 284 283 280 279 278 278 277 276 277 277 278 279 279 278 276 274 271 268 267 268 269 268 269 270 271 271 271 272 273 273 274 274 274
294 294 294 294 291 289 286 284 283 284 285 284 282 279 279 278 277 278 279 279 279 279 280 279 277 275 273 271 270 270 270 269 269 270 270 271 272 273 274 274 275 276 275
296 295 295 294 293 291 288 287 286 286 286 285 284 282 279 279 279 280 281 281 282 281 279 278 278 277 277 275 273 272 272 270 270 269 270 272 272 274 276 276 276 276 275
295 296 295 294 293 290 289 288 287 287 286 284 284 283 281 280 280 281 282 282 283 282 280 279 280 280 280 279 276 274 272 270 270 269 270 271 272 273 275 277 277 277 277
293 294 295 294 292 291 290 290 290 289 287 286 285 283 283 283 283 283 284 284 284 283 280 279 279 280 280 277 275 274 273 270 271 270 270 272 273 273 274 276 277 277 277
291 292 292 292 292 291 291 291 290 289 287 286 285 284 284 284 284 285 284 284 284 282 279 278 278 278 278 275 275 275 274 271 271 271 272 272 273 274 275 275 276 276 275
Height
5658 5660 5661 5662 5663 5663 5663 5663 5664 5664 5664 5664 5664 5663 5663 5663 5662 5662 5662 5662 5662 5663 5662 5662 5662 5661 5660 5659 5658 5657 5656 5654 5655 5656 5655 5654 5652 5651 5649 5648 5646 5644 5643
5647 5648 5649 5649 5650 5650 5650 5650 5650 5651 5651 5651 5651 5651 5650 5650 5649 5649 5649 5649 5650 5650 5650 5649 5649 5648 5647 5646 5645 5644 5643 5641 5641 5641 5641 5640 5639 5638 5636 5635 5634 5632 5631
5636 5636 5637 5637 5637 5637 5637 5638 5637 5637 5637 5637 5637 5637 5637 5637 5636 5636 5636 5636 5636 5637 5637 5636 5635 5634 5634 5633 5632 5631 5630 5628 5627 5627 5627 5626 5626 5625 5624 5623 5622 5620 5619
5625 5625 5625 5625 5625 5625 5625 5625 5624 5624 5623 5623 5623 5624 5624 5624 5623 5623 5623 5623 5623 5623 5623 5622 5622 5621 5621 5620 5619 5618 5616 5615 5614 5613 5613 5613 5612 5612 5611 5611 5610 5608 5607
5614 5613 5613 5613 5612 5612 5612 5612 5612 5611 5611 5610 5610 5610 5610 5610 5610 5610 5610 5610 5610 5610 5609 5609 5608 5608 5607 5606 5605 5604 5603 5602 5601 5600 5600 5600 5599 5599 5599 5598 5597 5596 5595
5602 5602 5602 5601 5600 5600 5600 5600 5600 5599 5599 5598 5598 5598 5598 5598 5598 5597 5597 5597 5597 5597 5596 5596 5595 5594 5593 5592 5591 5590 5589 5588 5588 5587 5587 5587 5587 5586 5585 5584 5584 5584 5583
5591 5591 5590 5589 5589 5588 5588 5588 5588 5588 5587 5587 5587 5586 5586 5586 5586 5585 5585 5584 5584 5584 5583 5582 5581 5580 5579 5578 5577 5576 5575 5574 5574 5574 5574 5574 5574 5574 5573 5572 5571 5570 5570
5581 5580 5579 5578 5578 5578 5578 5577 5577 5576 5576 5576 5575 5575 5575 5575 5574 5573 5572 5572 5571 5570 5570 5569 5568 5567 5566 5565 5564 5563 5562 5562 5561 5561 5561 5561 5560 5559 5559 5559 5558 5558 5558
5571 5570 5568 5568 5567 5567 5567 5567 5566 5566 5566 5565 5565 5564 5564 5563 5562 5561 5560 5559 5558 5557 5556 5555 5555 5554 5553 5552 5551 5551 5550 5550 5549 5548 5548 5547 5547 5546 5546 5546 5546 5546 5546
5562 5561 5559 5558 5558 5557 5557 5557 5556 5556 5555 5554 5553 5553 5552 5551 5550 5549 5548 5547 5546 5545 5544 5543 5542 5541 5540 5539 5539 5539 5538 5538 5538 5537 5536 5535 5534 5534 5533 5534 5534 5534 5533
5554 5552 5551 5549 5549 5548 5547 5547 5546 5545 5544 5543 5542 5542 5541 5539 5538 5537 5535 5534 5534 5533 5532 5531 5530 5529 5528 5528 5527 5527 5527 5526 5525 5525 5525 5524 5524 5523 5523 5523 5523 5522 5521
5545 5544 5542 5540 5539 5538 5537 5536 5535 5534 5533 5532 5531 5530 5529 5527 5526 5524 5523 5522 5521 5521 5520 5520 5519 5518 5517 5516 5515 5515 5515 5514 5514 5514 5514 5514 5514 5513 5513 5512 5512 5511 5510
5537 5535 5533 5531 5530 5528 5527 5526 5525 5523 5522 5521 5520 5519 5517 5515 5514 5512 5511 5510 5509 5509 5509 5508 5507 5506 5505 5505 5504 5504 5503 5503 5503 5503 5503 5503 5503 5503 5502 5502 5502 5501 5500
5527 5526 5523 5522 5520 5518 5516 5515 5514 5513 5512 5510 5509 5507 5506 5504 5502 5500 5499 5498 5497 5497 5496 5496 5495 5495 5494 5494 5493 5492 5492 5492 5492 5492 5492 5492 5492 5492 5492 5491 5492 5491 5490
5518 5516 5514 5512 5510 5509 5507 5505 5504 5503 5501 5499 5498 5496 5495 5494 5492 5490 5488 5488 5487 5486 5485 5485 5485 5484 5484 5483 5482 5481 5481 5481 5481 5481 5481 5482 5481 5482 5481 5481 5481 5481 5480
5509 5507 5504 5503 5501 5499 5497 5496 5494 5492 5490 5488 5486 5485 5483 5482 5481 5479 5478 5477 5475 5475 5474 5474 5474 5474 5473 5473 5472 5471 5470 5470 5470 5470 5471 5471 5471 5471 5471 5471 5471 5471 5471
5500 5498 5496 5494 5492 5490 5489 5487 5485 5482 5480 5478 5476 5474 5473 5471 5470 5469 5468 5466 5465 5464 5464 5464 5463 5463 5463 5462 5461 5461 5461 5461 5461 5461 5461 5461 5461 5461 5461 5461 5461 5461 5461
5492 5490 5488 5486 5484 5482 5480 5478 5476 5474 5472 5469 5466 5464 5463 5461 5460 5459 5458 5457 5456 5455 5454 5453 5453 5453 5452 5452 5451 5451 5451 5451 5451 5451 5451 5451 5451 5452 5452 5452 5452 5451 5451
5485 5482 5480 5477 5475 5473 5471 5468 5466 5464 5462 5460 5458 5455 5454 5452 5451 5450 5449 5448 5447 5446 5445 5444 5443 5443 5443 5442 5442 5442 5442 5442 5442 5442 5443 5443 5442 5442 5443 5443 5443 5442 5442
5477 5474 5471 5469 5467 5464 5462 5459 5457 5455 5453 5451 5449 5447 5445 5444 5443 5442 5441 5440 5439 5438 5436 5435 5434 5434 5433 5433 5433 5433 5434 5434 5434 5434 5434 5433 5433 5433 5433 5433 5433 5433 5432
5469 5466 5463 5461 5458 5455 5453 5451 5449 5447 5445 5443 5441 5439 5438 5436 5435 5434 5433 5432 5431 5429 5428 5427 5426 5425 5425 5424 5424 5425 5425 5425 5425 5425 5425 5425 5425 5425 5425 5425 5424 5424 5423
5461 5458 5455 5452 5450 5447 5445 5443 5441 5439 5437 5435 5433 5431 5430 5429 5428 5427 5425 5424 5423 5421 5420 5419 5418 5417 5417 5416 5416 5416 5416 5416 5416 5416 5416 5416 5416 5416 5416 5416 5416 5415 5415
5453 5450 5447 5445 5442 5439 5437 5435 5433 5431 5429 5428 5426 5424 5423 5421 5420 5419 5418 5417 5415 5414 5413 5412 5411 5410 5409 5409 5408 5409 5409 5409 5408 5408 5408 5408 5408 5408 5408 5408 5408 5407 5407
5445 5442 5440 5437 5434 5432 5429 5427 5425 5423 5421 5420 5418 5417 5415 5414 5413 5411 5410 5409 5407 5406 5405 5404 5403 5403 5402 5401 5401 5401 5401 5401 5401 5401 5401 5401 5401 5400 5400 5400 5400 5400 5399
5437 5435 5432 5429 5427 5424 5422 5420 5418 5416 5414 5412 5411 5409 5408 5407 5405 5404 5403 5401 5400 5399 5398 5397 5397 5396 5395 5395 5394 5394 5394 5394 5393 5393 5393 5393 5393 5393 5393 5393 5393 5393 5393
5429 5427 5424 5422 5419 5417 5414 5412 5410 5409 5407 5406 5404 5403 5401 5400 5399 5397 5396 5394 5393 5392 5391 5391 5390 5390 5389 5388 5388 5387 5387 5386 5386 5386 5386 5386 5386 5386 5386 5386 5386 5386 5386